Year,Month,Day,Hour,Minute,Value (Times are PST for temperature in C)
2015,05,30,00,00,15.70
2015,05,30,00,01,15.60
2015,05,30,00,02,15.60
2015,05,30,00,03,15.60
2015,05,30,00,04,15.50
2015,05,30,00,05,15.40
2015,05,30,00,06,15.40
2015,05,30,00,07,15.40
2015,05,30,00,08,15.40
2015,05,30,00,09,15.40
2015,05,30,00,10,15.40
2015,05,30,00,11,15.40
2015,05,30,00,12,15.40
2015,05,30,00,13,15.40
2015,05,30,00,14,15.40
2015,05,30,00,15,15.30
2015,05,30,00,16,15.30
2015,05,30,00,17,15.30
2015,05,30,00,18,15.30
2015,05,30,00,19,15.30
2015,05,30,00,20,15.30
2015,05,30,00,21,15.30
2015,05,30,00,22,15.20
2015,05,30,00,23,15.20
2015,05,30,00,24,15.20
2015,05,30,00,25,15.20
2015,05,30,00,26,15.10
2015,05,30,00,27,15.00
2015,05,30,00,28,15.00
2015,05,30,00,29,15.00
2015,05,30,00,30,15.00
2015,05,30,00,31,15.00
2015,05,30,00,32,15.00
2015,05,30,00,33,15.00
2015,05,30,00,34,15.00
2015,05,30,00,35,15.00
2015,05,30,00,36,15.00
2015,05,30,00,37,15.00
2015,05,30,00,38,15.00
2015,05,30,00,39,15.00
2015,05,30,00,40,15.00
2015,05,30,00,41,15.00
2015,05,30,00,42,15.00
2015,05,30,00,43,15.00
2015,05,30,00,44,14.90
2015,05,30,00,45,14.80
2015,05,30,00,46,14.80
2015,05,30,00,47,14.80
2015,05,30,00,48,14.70
2015,05,30,00,49,14.70
2015,05,30,00,50,14.70
2015,05,30,00,51,14.60
2015,05,30,00,52,14.60
2015,05,30,00,53,14.60
2015,05,30,00,54,14.50
2015,05,30,00,55,14.50
2015,05,30,00,56,14.40
2015,05,30,00,57,14.40
2015,05,30,00,58,14.40
2015,05,30,00,59,14.40
2015,05,30,01,00,14.40
2015,05,30,01,01,14.40
2015,05,30,01,02,14.40
2015,05,30,01,03,14.30
2015,05,30,01,04,14.30
2015,05,30,01,05,14.30
2015,05,30,01,06,14.30
2015,05,30,01,07,14.20
2015,05,30,01,08,14.20
2015,05,30,01,09,14.20
2015,05,30,01,10,14.20
2015,05,30,01,11,14.20
2015,05,30,01,12,14.10
2015,05,30,01,13,14.10
2015,05,30,01,14,14.10
2015,05,30,01,15,14.10
2015,05,30,01,16,14.10
2015,05,30,01,17,14.00
2015,05,30,01,18,14.00
2015,05,30,01,19,14.00
2015,05,30,01,20,13.90
2015,05,30,01,21,13.90
2015,05,30,01,22,13.90
2015,05,30,01,23,13.90
2015,05,30,01,24,13.90
2015,05,30,01,25,13.90
2015,05,30,01,26,13.90
2015,05,30,01,27,13.90
2015,05,30,01,28,13.90
2015,05,30,01,29,13.90
2015,05,30,01,30,13.80
2015,05,30,01,31,13.80
2015,05,30,01,32,13.80
2015,05,30,01,33,13.80
2015,05,30,01,34,13.70
2015,05,30,01,35,13.70
2015,05,30,01,36,13.70
2015,05,30,01,37,13.70
2015,05,30,01,38,13.70
2015,05,30,01,39,13.70
2015,05,30,01,40,13.60
2015,05,30,01,41,13.60
2015,05,30,01,42,13.60
2015,05,30,01,43,13.60
2015,05,30,01,44,13.60
2015,05,30,01,45,13.60
2015,05,30,01,46,13.60
2015,05,30,01,47,13.50
2015,05,30,01,48,13.50
2015,05,30,01,49,13.50
2015,05,30,01,50,13.50
2015,05,30,01,51,13.40
2015,05,30,01,52,13.40
2015,05,30,01,53,13.40
2015,05,30,01,54,13.40
2015,05,30,01,55,13.30
2015,05,30,01,56,13.30
2015,05,30,01,57,13.30
2015,05,30,01,58,13.30
2015,05,30,01,59,13.20
2015,05,30,02,00,13.20
2015,05,30,02,01,13.20
2015,05,30,02,02,13.20
2015,05,30,02,03,13.10
2015,05,30,02,04,13.10
2015,05,30,02,05,13.10
2015,05,30,02,06,13.10
2015,05,30,02,07,13.10
2015,05,30,02,08,13.10
2015,05,30,02,09,13.00
2015,05,30,02,10,13.00
2015,05,30,02,11,13.00
2015,05,30,02,12,12.90
2015,05,30,02,13,12.90
2015,05,30,02,14,12.90
2015,05,30,02,15,12.90
2015,05,30,02,16,12.90
2015,05,30,02,17,12.90
2015,05,30,02,18,12.90
2015,05,30,02,19,12.90
2015,05,30,02,20,12.90
2015,05,30,02,21,12.90
2015,05,30,02,22,12.80
2015,05,30,02,23,12.80
2015,05,30,02,24,12.80
2015,05,30,02,25,12.80
2015,05,30,02,26,12.80
2015,05,30,02,27,12.80
2015,05,30,02,28,12.80
2015,05,30,02,29,12.80
2015,05,30,02,30,12.70
2015,05,30,02,31,12.70
2015,05,30,02,32,12.70
2015,05,30,02,33,12.70
2015,05,30,02,34,12.70
2015,05,30,02,35,12.70
2015,05,30,02,36,12.70
2015,05,30,02,37,12.60
2015,05,30,02,38,12.60
2015,05,30,02,39,12.60
2015,05,30,02,40,12.60
2015,05,30,02,41,12.60
2015,05,30,02,42,12.60
2015,05,30,02,43,12.60
2015,05,30,02,44,12.60
2015,05,30,02,45,12.50
2015,05,30,02,46,12.50
2015,05,30,02,47,12.50
2015,05,30,02,48,12.50
2015,05,30,02,49,12.40
2015,05,30,02,50,12.40
2015,05,30,02,51,12.40
2015,05,30,02,52,12.40
2015,05,30,02,53,12.40
2015,05,30,02,54,12.40
2015,05,30,02,55,12.40
2015,05,30,02,56,12.40
2015,05,30,02,57,12.40
2015,05,30,02,58,12.40
2015,05,30,02,59,12.50
2015,05,30,03,00,12.50
2015,05,30,03,01,12.40
2015,05,30,03,02,12.40
2015,05,30,03,03,12.40
2015,05,30,03,04,12.40
2015,05,30,03,05,12.40
2015,05,30,03,06,12.40
2015,05,30,03,07,12.40
2015,05,30,03,08,12.40
2015,05,30,03,09,12.40
2015,05,30,03,10,12.40
2015,05,30,03,11,12.40
2015,05,30,03,12,12.40
2015,05,30,03,13,12.40
2015,05,30,03,14,12.40
2015,05,30,03,15,12.40
2015,05,30,03,16,12.40
2015,05,30,03,17,12.40
2015,05,30,03,18,12.40
2015,05,30,03,19,12.40
2015,05,30,03,20,12.30
2015,05,30,03,21,12.30
2015,05,30,03,22,12.30
2015,05,30,03,23,12.30
2015,05,30,03,24,12.30
2015,05,30,03,25,12.30
2015,05,30,03,26,12.30
2015,05,30,03,27,12.30
2015,05,30,03,28,12.30
2015,05,30,03,29,12.30
2015,05,30,03,30,12.30
2015,05,30,03,31,12.30
2015,05,30,03,32,12.30
2015,05,30,03,33,12.30
2015,05,30,03,34,12.30
2015,05,30,03,35,12.30
2015,05,30,03,36,12.30
2015,05,30,03,37,12.20
2015,05,30,03,38,12.20
2015,05,30,03,39,12.20
2015,05,30,03,40,12.30
2015,05,30,03,41,12.20
2015,05,30,03,42,12.30
2015,05,30,03,43,12.30
2015,05,30,03,44,12.30
2015,05,30,03,45,12.30
2015,05,30,03,46,12.30
2015,05,30,03,47,12.20
2015,05,30,03,48,12.20
2015,05,30,03,49,12.20
2015,05,30,03,50,12.20
2015,05,30,03,51,12.20
2015,05,30,03,52,12.20
2015,05,30,03,53,12.20
2015,05,30,03,54,12.20
2015,05,30,03,55,12.10
2015,05,30,03,56,12.10
2015,05,30,03,57,12.10
2015,05,30,03,58,12.10
2015,05,30,03,59,12.00
2015,05,30,04,00,12.00
2015,05,30,04,01,11.90
2015,05,30,04,02,11.90
2015,05,30,04,03,11.90
2015,05,30,04,04,11.90
2015,05,30,04,05,11.80
2015,05,30,04,06,11.80
2015,05,30,04,07,11.80
2015,05,30,04,08,11.80
2015,05,30,04,09,11.80
2015,05,30,04,10,11.80
2015,05,30,04,11,11.80
2015,05,30,04,12,11.80
2015,05,30,04,13,11.80
2015,05,30,04,14,11.80
2015,05,30,04,15,11.80
2015,05,30,04,16,11.80
2015,05,30,04,17,11.80
2015,05,30,04,18,11.80
2015,05,30,04,19,11.80
2015,05,30,04,20,11.80
2015,05,30,04,21,11.70
2015,05,30,04,22,11.70
2015,05,30,04,23,11.70
2015,05,30,04,24,11.70
2015,05,30,04,25,11.70
2015,05,30,04,26,11.70
2015,05,30,04,27,11.70
2015,05,30,04,28,11.70
2015,05,30,04,29,11.70
2015,05,30,04,30,11.70
2015,05,30,04,31,11.60
2015,05,30,04,32,11.60
2015,05,30,04,33,11.60
2015,05,30,04,34,11.60
2015,05,30,04,35,11.60
2015,05,30,04,36,11.60
2015,05,30,04,37,11.50
2015,05,30,04,38,11.60
2015,05,30,04,39,11.50
2015,05,30,04,40,11.50
2015,05,30,04,41,11.50
2015,05,30,04,42,11.50
2015,05,30,04,43,11.50
2015,05,30,04,44,11.50
2015,05,30,04,45,11.50
2015,05,30,04,46,11.50
2015,05,30,04,47,11.50
2015,05,30,04,48,11.50
2015,05,30,04,49,11.50
2015,05,30,04,50,11.40
2015,05,30,04,51,11.40
2015,05,30,04,52,11.40
2015,05,30,04,53,11.40
2015,05,30,04,54,11.40
2015,05,30,04,55,11.40
2015,05,30,04,56,11.40
2015,05,30,04,57,11.40
2015,05,30,04,58,11.40
2015,05,30,04,59,11.40
2015,05,30,05,00,11.40
2015,05,30,05,01,11.40
2015,05,30,05,02,11.40
2015,05,30,05,03,11.40
2015,05,30,05,04,11.40
2015,05,30,05,05,11.40
2015,05,30,05,06,11.40
2015,05,30,05,07,11.40
2015,05,30,05,08,11.40
2015,05,30,05,09,11.40
2015,05,30,05,10,11.40
2015,05,30,05,11,11.40
2015,05,30,05,12,11.40
2015,05,30,05,13,11.30
2015,05,30,05,14,11.30
2015,05,30,05,15,11.30
2015,05,30,05,16,11.30
2015,05,30,05,17,11.30
2015,05,30,05,18,11.30
2015,05,30,05,19,11.20
2015,05,30,05,20,11.20
2015,05,30,05,21,11.20
2015,05,30,05,22,11.20
2015,05,30,05,23,11.10
2015,05,30,05,24,11.10
2015,05,30,05,25,11.10
2015,05,30,05,26,11.00
2015,05,30,05,27,11.00
2015,05,30,05,28,11.00
2015,05,30,05,29,11.00
2015,05,30,05,30,10.90
2015,05,30,05,31,10.90
2015,05,30,05,32,10.90
2015,05,30,05,33,10.90
2015,05,30,05,34,10.90
2015,05,30,05,35,10.90
2015,05,30,05,36,10.90
2015,05,30,05,37,10.80
2015,05,30,05,38,10.80
2015,05,30,05,39,10.80
2015,05,30,05,40,10.80
2015,05,30,05,41,10.80
2015,05,30,05,42,10.80
2015,05,30,05,43,10.80
2015,05,30,05,44,10.80
2015,05,30,05,45,10.80
2015,05,30,05,46,10.80
2015,05,30,05,47,10.70
2015,05,30,05,48,10.70
2015,05,30,05,49,10.70
2015,05,30,05,50,10.70
2015,05,30,05,51,10.70
2015,05,30,05,52,10.70
2015,05,30,05,53,10.70
2015,05,30,05,54,10.70
2015,05,30,05,55,10.70
2015,05,30,05,56,10.70
2015,05,30,05,57,10.70
2015,05,30,05,58,10.80
2015,05,30,05,59,10.80
2015,05,30,06,00,10.80
2015,05,30,06,01,10.80
2015,05,30,06,02,10.80
2015,05,30,06,03,10.80
2015,05,30,06,04,10.80
2015,05,30,06,05,10.80
2015,05,30,06,06,10.80
2015,05,30,06,07,10.80
2015,05,30,06,08,10.80
2015,05,30,06,09,10.80
2015,05,30,06,10,10.70
2015,05,30,06,11,10.80
2015,05,30,06,12,10.70
2015,05,30,06,13,10.80
2015,05,30,06,14,10.80
2015,05,30,06,15,10.80
2015,05,30,06,16,10.70
2015,05,30,06,17,10.80
2015,05,30,06,18,10.80
2015,05,30,06,19,10.80
2015,05,30,06,20,10.80
2015,05,30,06,21,10.80
2015,05,30,06,22,10.80
2015,05,30,06,23,10.80
2015,05,30,06,24,10.80
2015,05,30,06,25,10.80
2015,05,30,06,26,10.80
2015,05,30,06,27,10.80
2015,05,30,06,28,10.70
2015,05,30,06,29,10.70
2015,05,30,06,30,10.70
2015,05,30,06,31,10.70
2015,05,30,06,32,10.70
2015,05,30,06,33,10.70
2015,05,30,06,34,10.70
2015,05,30,06,35,10.70
2015,05,30,06,36,10.70
2015,05,30,06,37,10.70
2015,05,30,06,38,10.70
2015,05,30,06,39,10.70
2015,05,30,06,40,10.60
2015,05,30,06,41,10.60
2015,05,30,06,42,10.60
2015,05,30,06,43,10.70
2015,05,30,06,44,10.70
2015,05,30,06,45,10.70
2015,05,30,06,46,10.70
2015,05,30,06,47,10.70
2015,05,30,06,48,10.70
2015,05,30,06,49,10.70
2015,05,30,06,50,10.60
2015,05,30,06,51,10.60
2015,05,30,06,52,10.60
2015,05,30,06,53,10.60
2015,05,30,06,54,10.60
2015,05,30,06,55,10.70
2015,05,30,06,56,10.70
2015,05,30,06,57,10.70
2015,05,30,06,58,10.70
2015,05,30,06,59,10.70
2015,05,30,07,00,10.70
2015,05,30,07,01,10.70
2015,05,30,07,02,10.70
2015,05,30,07,03,10.70
2015,05,30,07,04,10.70
2015,05,30,07,05,10.80
2015,05,30,07,06,10.80
2015,05,30,07,07,10.80
2015,05,30,07,08,10.80
2015,05,30,07,09,10.80
2015,05,30,07,10,10.80
2015,05,30,07,11,10.80
2015,05,30,07,12,10.90
2015,05,30,07,13,10.90
2015,05,30,07,14,10.90
2015,05,30,07,15,10.90
2015,05,30,07,16,10.90
2015,05,30,07,17,10.90
2015,05,30,07,18,10.90
2015,05,30,07,19,10.90
2015,05,30,07,20,11.00
2015,05,30,07,21,11.00
2015,05,30,07,22,11.00
2015,05,30,07,23,11.00
2015,05,30,07,24,11.00
2015,05,30,07,25,11.10
2015,05,30,07,26,11.10
2015,05,30,07,27,11.10
2015,05,30,07,28,11.10
2015,05,30,07,29,11.20
2015,05,30,07,30,11.20
2015,05,30,07,31,11.20
2015,05,30,07,32,11.20
2015,05,30,07,33,11.20
2015,05,30,07,34,11.30
2015,05,30,07,35,11.30
2015,05,30,07,36,11.30
2015,05,30,07,37,11.40
2015,05,30,07,38,11.40
2015,05,30,07,39,11.50
2015,05,30,07,40,11.50
2015,05,30,07,41,11.60
2015,05,30,07,42,11.60
2015,05,30,07,43,11.60
2015,05,30,07,44,11.70
2015,05,30,07,45,11.70
2015,05,30,07,46,11.70
2015,05,30,07,47,11.80
2015,05,30,07,48,11.80
2015,05,30,07,49,11.80
2015,05,30,07,50,11.80
2015,05,30,07,51,11.90
2015,05,30,07,52,11.90
2015,05,30,07,53,11.90
2015,05,30,07,54,11.90
2015,05,30,07,55,11.90
2015,05,30,07,56,12.00
2015,05,30,07,57,12.00
2015,05,30,07,58,12.00
2015,05,30,07,59,12.10
2015,05,30,08,00,12.10
2015,05,30,08,01,12.10
2015,05,30,08,02,12.10
2015,05,30,08,03,12.10
2015,05,30,08,04,12.10
2015,05,30,08,05,12.20
2015,05,30,08,06,12.20
2015,05,30,08,07,12.20
2015,05,30,08,08,12.30
2015,05,30,08,09,12.30
2015,05,30,08,10,12.30
2015,05,30,08,11,12.40
2015,05,30,08,12,12.40
2015,05,30,08,13,12.50
2015,05,30,08,14,12.60
2015,05,30,08,15,12.70
2015,05,30,08,16,12.80
2015,05,30,08,17,12.80
2015,05,30,08,18,12.90
2015,05,30,08,19,12.90
2015,05,30,08,20,13.00
2015,05,30,08,21,13.10
2015,05,30,08,22,13.10
2015,05,30,08,23,13.10
2015,05,30,08,24,13.20
2015,05,30,08,25,13.20
2015,05,30,08,26,13.30
2015,05,30,08,27,13.30
2015,05,30,08,28,13.40
2015,05,30,08,29,13.40
2015,05,30,08,30,13.50
2015,05,30,08,31,13.50
2015,05,30,08,32,13.60
2015,05,30,08,33,13.60
2015,05,30,08,34,13.70
2015,05,30,08,35,13.70
2015,05,30,08,36,13.80
2015,05,30,08,37,13.80
2015,05,30,08,38,13.90
2015,05,30,08,39,13.90
2015,05,30,08,40,14.00
2015,05,30,08,41,14.00
2015,05,30,08,42,14.10
2015,05,30,08,43,14.20
2015,05,30,08,44,14.20
2015,05,30,08,45,14.30
2015,05,30,08,46,14.30
2015,05,30,08,47,14.40
2015,05,30,08,48,14.50
2015,05,30,08,49,14.50
2015,05,30,08,50,14.60
2015,05,30,08,51,14.60
2015,05,30,08,52,14.70
2015,05,30,08,53,14.70
2015,05,30,08,54,14.80
2015,05,30,08,55,14.90
2015,05,30,08,56,15.00
2015,05,30,08,57,15.00
2015,05,30,08,58,15.00
2015,05,30,08,59,15.00
2015,05,30,09,00,15.00
2015,05,30,09,01,15.10
2015,05,30,09,02,15.20
2015,05,30,09,03,15.30
2015,05,30,09,04,15.30
2015,05,30,09,05,15.40
2015,05,30,09,06,15.40
2015,05,30,09,07,15.50
2015,05,30,09,08,15.50
2015,05,30,09,09,15.60
2015,05,30,09,10,15.60
2015,05,30,09,11,15.70
2015,05,30,09,12,15.70
2015,05,30,09,13,15.80
2015,05,30,09,14,15.80
2015,05,30,09,15,15.80
2015,05,30,09,16,15.80
2015,05,30,09,17,15.80
2015,05,30,09,18,15.90
2015,05,30,09,19,15.90
2015,05,30,09,20,15.90
2015,05,30,09,21,16.00
2015,05,30,09,22,16.00
2015,05,30,09,23,16.10
2015,05,30,09,24,16.20
2015,05,30,09,25,16.30
2015,05,30,09,26,16.30
2015,05,30,09,27,16.40
2015,05,30,09,28,16.50
2015,05,30,09,29,16.60
2015,05,30,09,30,16.60
2015,05,30,09,31,16.70
2015,05,30,09,32,16.80
2015,05,30,09,33,16.90
2015,05,30,09,34,17.00
2015,05,30,09,35,17.10
2015,05,30,09,36,17.20
2015,05,30,09,37,17.20
2015,05,30,09,38,17.30
2015,05,30,09,39,17.40
2015,05,30,09,40,17.50
2015,05,30,09,41,17.60
2015,05,30,09,42,17.70
2015,05,30,09,43,17.80
2015,05,30,09,44,17.90
2015,05,30,09,45,18.00
2015,05,30,09,46,18.10
2015,05,30,09,47,18.20
2015,05,30,09,48,18.20
2015,05,30,09,49,18.30
2015,05,30,09,50,18.40
2015,05,30,09,51,18.50
2015,05,30,09,52,18.50
2015,05,30,09,53,18.60
2015,05,30,09,54,18.70
2015,05,30,09,55,18.70
2015,05,30,09,56,18.80
2015,05,30,09,57,18.80
2015,05,30,09,58,18.80
2015,05,30,09,59,18.80
2015,05,30,10,00,18.70
2015,05,30,10,01,18.70
2015,05,30,10,02,18.70
2015,05,30,10,03,18.70
2015,05,30,10,04,18.70
2015,05,30,10,05,18.70
2015,05,30,10,06,18.70
2015,05,30,10,07,18.60
2015,05,30,10,08,18.60
2015,05,30,10,09,18.50
2015,05,30,10,10,18.40
2015,05,30,10,11,18.40
2015,05,30,10,12,18.40
2015,05,30,10,13,18.40
2015,05,30,10,14,18.40
2015,05,30,10,15,18.40
2015,05,30,10,16,18.40
2015,05,30,10,17,18.40
2015,05,30,10,18,18.40
2015,05,30,10,19,18.50
2015,05,30,10,20,18.50
2015,05,30,10,21,18.60
2015,05,30,10,22,18.60
2015,05,30,10,23,18.60
2015,05,30,10,24,18.60
2015,05,30,10,25,18.60
2015,05,30,10,26,18.60
2015,05,30,10,27,18.70
2015,05,30,10,28,18.70
2015,05,30,10,29,18.70
2015,05,30,10,30,18.80
2015,05,30,10,31,18.80
2015,05,30,10,32,18.70
2015,05,30,10,33,18.80
2015,05,30,10,34,18.80
2015,05,30,10,35,18.80
2015,05,30,10,36,18.80
2015,05,30,10,37,18.80
2015,05,30,10,38,18.80
2015,05,30,10,39,18.80
2015,05,30,10,40,18.70
2015,05,30,10,41,18.70
2015,05,30,10,42,18.70
2015,05,30,10,43,18.70
2015,05,30,10,44,18.70
2015,05,30,10,45,18.70
2015,05,30,10,46,18.70
2015,05,30,10,47,18.70
2015,05,30,10,48,18.70
2015,05,30,10,49,18.80
2015,05,30,10,50,18.80
2015,05,30,10,51,18.90
2015,05,30,10,52,18.90
2015,05,30,10,53,19.00
2015,05,30,10,54,19.00
2015,05,30,10,55,19.00
2015,05,30,10,56,19.00
2015,05,30,10,57,19.00
2015,05,30,10,58,19.00
2015,05,30,10,59,19.00
2015,05,30,11,00,19.10
2015,05,30,11,01,19.10
2015,05,30,11,02,19.10
2015,05,30,11,03,19.10
2015,05,30,11,04,19.10
2015,05,30,11,05,19.10
2015,05,30,11,06,19.10
2015,05,30,11,07,19.10
2015,05,30,11,08,19.10
2015,05,30,11,09,19.10
2015,05,30,11,10,19.10
2015,05,30,11,11,19.10
2015,05,30,11,12,19.10
2015,05,30,11,13,19.20
2015,05,30,11,14,19.20
2015,05,30,11,15,19.20
2015,05,30,11,16,19.20
2015,05,30,11,17,19.20
2015,05,30,11,18,19.20
2015,05,30,11,19,19.20
2015,05,30,11,20,19.20
2015,05,30,11,21,19.20
2015,05,30,11,22,19.10
2015,05,30,11,23,19.20
2015,05,30,11,24,19.10
2015,05,30,11,25,19.10
2015,05,30,11,26,19.10
2015,05,30,11,27,19.20
2015,05,30,11,28,19.20
2015,05,30,11,29,19.20
2015,05,30,11,30,19.20
2015,05,30,11,31,19.10
2015,05,30,11,32,19.10
2015,05,30,11,33,19.10
2015,05,30,11,34,19.10
2015,05,30,11,35,19.10
2015,05,30,11,36,19.10
2015,05,30,11,37,19.10
2015,05,30,11,38,19.10
2015,05,30,11,39,19.10
2015,05,30,11,40,19.10
2015,05,30,11,41,19.10
2015,05,30,11,42,19.00
2015,05,30,11,43,19.00
2015,05,30,11,44,19.00
2015,05,30,11,45,18.90
2015,05,30,11,46,19.00
2015,05,30,11,47,19.00
2015,05,30,11,48,18.90
2015,05,30,11,49,18.90
2015,05,30,11,50,18.80
2015,05,30,11,51,18.80
2015,05,30,11,52,18.80
2015,05,30,11,53,18.80
2015,05,30,11,54,18.80
2015,05,30,11,55,18.70
2015,05,30,11,56,18.70
2015,05,30,11,57,18.70
2015,05,30,11,58,18.70
2015,05,30,11,59,18.70
2015,05,30,12,00,18.80
2015,05,30,12,01,18.80
2015,05,30,12,02,18.90
2015,05,30,12,03,18.90
2015,05,30,12,04,18.90
2015,05,30,12,05,18.80
2015,05,30,12,06,18.80
2015,05,30,12,07,18.80
2015,05,30,12,08,18.80
2015,05,30,12,09,18.80
2015,05,30,12,10,18.90
2015,05,30,12,11,18.90
2015,05,30,12,12,19.00
2015,05,30,12,13,19.00
2015,05,30,12,14,19.10
2015,05,30,12,15,19.10
2015,05,30,12,16,19.20
2015,05,30,12,17,19.20
2015,05,30,12,18,19.30
2015,05,30,12,19,19.30
2015,05,30,12,20,19.30
2015,05,30,12,21,19.40
2015,05,30,12,22,19.40
2015,05,30,12,23,19.40
2015,05,30,12,24,19.40
2015,05,30,12,25,19.40
2015,05,30,12,26,19.40
2015,05,30,12,27,19.40
2015,05,30,12,28,19.50
2015,05,30,12,29,19.50
2015,05,30,12,30,19.60
2015,05,30,12,31,19.60
2015,05,30,12,32,19.60
2015,05,30,12,33,19.70
2015,05,30,12,34,19.70
2015,05,30,12,35,19.80
2015,05,30,12,36,19.80
2015,05,30,12,37,19.80
2015,05,30,12,38,19.90
2015,05,30,12,39,20.00
2015,05,30,12,40,20.00
2015,05,30,12,41,20.00
2015,05,30,12,42,20.10
2015,05,30,12,43,20.20
2015,05,30,12,44,20.20
2015,05,30,12,45,20.30
2015,05,30,12,46,20.40
2015,05,30,12,47,20.50
2015,05,30,12,48,20.50
2015,05,30,12,49,20.50
2015,05,30,12,50,20.40
2015,05,30,12,51,20.40
2015,05,30,12,52,20.30
2015,05,30,12,53,20.30
2015,05,30,12,54,20.30
2015,05,30,12,55,20.20
2015,05,30,12,56,20.10
2015,05,30,12,57,20.00
2015,05,30,12,58,20.00
2015,05,30,12,59,20.00
2015,05,30,13,00,20.00
2015,05,30,13,01,20.00
2015,05,30,13,02,20.00
2015,05,30,13,03,20.10
2015,05,30,13,04,20.10
2015,05,30,13,05,20.20
2015,05,30,13,06,20.20
2015,05,30,13,07,20.20
2015,05,30,13,08,20.20
2015,05,30,13,09,20.30
2015,05,30,13,10,20.30
2015,05,30,13,11,20.30
2015,05,30,13,12,20.20
2015,05,30,13,13,20.20
2015,05,30,13,14,20.20
2015,05,30,13,15,20.20
2015,05,30,13,16,20.30
2015,05,30,13,17,20.30
2015,05,30,13,18,20.30
2015,05,30,13,19,20.30
2015,05,30,13,20,20.20
2015,05,30,13,21,20.00
2015,05,30,13,22,19.90
2015,05,30,13,23,19.90
2015,05,30,13,24,19.80
2015,05,30,13,25,19.80
2015,05,30,13,26,19.70
2015,05,30,13,27,19.60
2015,05,30,13,28,19.50
2015,05,30,13,29,19.50
2015,05,30,13,30,19.40
2015,05,30,13,31,19.50
2015,05,30,13,32,19.50
2015,05,30,13,33,19.50
2015,05,30,13,34,19.40
2015,05,30,13,35,19.40
2015,05,30,13,36,19.40
2015,05,30,13,37,19.50
2015,05,30,13,38,19.50
2015,05,30,13,39,19.60
2015,05,30,13,40,19.60
2015,05,30,13,41,19.70
2015,05,30,13,42,19.70
2015,05,30,13,43,19.80
2015,05,30,13,44,19.80
2015,05,30,13,45,19.90
2015,05,30,13,46,19.80
2015,05,30,13,47,19.80
2015,05,30,13,48,19.80
2015,05,30,13,49,19.80
2015,05,30,13,50,19.70
2015,05,30,13,51,19.70
2015,05,30,13,52,19.70
2015,05,30,13,53,19.60
2015,05,30,13,54,19.70
2015,05,30,13,55,19.70
2015,05,30,13,56,19.70
2015,05,30,13,57,19.80
2015,05,30,13,58,19.80
2015,05,30,13,59,19.90
2015,05,30,14,00,19.90
2015,05,30,14,01,20.00
2015,05,30,14,02,20.00
2015,05,30,14,03,20.00
2015,05,30,14,04,20.10
2015,05,30,14,05,20.10
2015,05,30,14,06,20.10
2015,05,30,14,07,20.10
2015,05,30,14,08,20.20
2015,05,30,14,09,20.20
2015,05,30,14,10,20.20
2015,05,30,14,11,20.20
2015,05,30,14,12,20.10
2015,05,30,14,13,20.10
2015,05,30,14,14,20.00
2015,05,30,14,15,19.90
2015,05,30,14,16,19.90
2015,05,30,14,17,19.80
2015,05,30,14,18,19.80
2015,05,30,14,19,19.70
2015,05,30,14,20,19.60
2015,05,30,14,21,19.50
2015,05,30,14,22,19.40
2015,05,30,14,23,19.40
2015,05,30,14,24,19.30
2015,05,30,14,25,19.30
2015,05,30,14,26,19.40
2015,05,30,14,27,19.40
2015,05,30,14,28,19.40
2015,05,30,14,29,19.40
2015,05,30,14,30,19.30
2015,05,30,14,31,19.40
2015,05,30,14,32,19.40
2015,05,30,14,33,19.50
2015,05,30,14,34,19.60
2015,05,30,14,35,19.70
2015,05,30,14,36,19.70
2015,05,30,14,37,19.80
2015,05,30,14,38,19.90
2015,05,30,14,39,19.90
2015,05,30,14,40,19.90
2015,05,30,14,41,19.90
2015,05,30,14,42,19.90
2015,05,30,14,43,19.80
2015,05,30,14,44,19.80
2015,05,30,14,45,19.70
2015,05,30,14,46,19.60
2015,05,30,14,47,19.60
2015,05,30,14,48,19.60
2015,05,30,14,49,19.60
2015,05,30,14,50,19.50
2015,05,30,14,51,19.60
2015,05,30,14,52,19.60
2015,05,30,14,53,19.60
2015,05,30,14,54,19.70
2015,05,30,14,55,19.70
2015,05,30,14,56,19.80
2015,05,30,14,57,19.90
2015,05,30,14,58,20.00
2015,05,30,14,59,20.10
2015,05,30,15,00,20.10
2015,05,30,15,01,20.20
2015,05,30,15,02,20.30
2015,05,30,15,03,20.40
2015,05,30,15,04,20.50
2015,05,30,15,05,20.60
2015,05,30,15,06,20.70
2015,05,30,15,07,20.70
2015,05,30,15,08,20.60
2015,05,30,15,09,20.70
2015,05,30,15,10,20.70
2015,05,30,15,11,20.80
2015,05,30,15,12,20.80
2015,05,30,15,13,20.90
2015,05,30,15,14,21.00
2015,05,30,15,15,21.10
2015,05,30,15,16,21.10
2015,05,30,15,17,21.10
2015,05,30,15,18,21.00
2015,05,30,15,19,21.00
2015,05,30,15,20,20.90
2015,05,30,15,21,20.80
2015,05,30,15,22,20.80
2015,05,30,15,23,20.80
2015,05,30,15,24,20.80
2015,05,30,15,25,20.70
2015,05,30,15,26,20.60
2015,05,30,15,27,20.50
2015,05,30,15,28,20.50
2015,05,30,15,29,20.40
2015,05,30,15,30,20.40
2015,05,30,15,31,20.40
2015,05,30,15,32,20.40
2015,05,30,15,33,20.40
2015,05,30,15,34,20.40
2015,05,30,15,35,20.30
2015,05,30,15,36,20.20
2015,05,30,15,37,20.20
2015,05,30,15,38,20.20
2015,05,30,15,39,20.20
2015,05,30,15,40,20.10
2015,05,30,15,41,20.10
2015,05,30,15,42,20.20
2015,05,30,15,43,20.20
2015,05,30,15,44,20.30
2015,05,30,15,45,20.30
2015,05,30,15,46,20.30
2015,05,30,15,47,20.40
2015,05,30,15,48,20.40
2015,05,30,15,49,20.40
2015,05,30,15,50,20.40
2015,05,30,15,51,20.40
2015,05,30,15,52,20.40
2015,05,30,15,53,20.50
2015,05,30,15,54,20.50
2015,05,30,15,55,20.60
2015,05,30,15,56,20.70
2015,05,30,15,57,20.70
2015,05,30,15,58,20.70
2015,05,30,15,59,20.70
2015,05,30,16,00,20.70
2015,05,30,16,01,20.70
2015,05,30,16,02,20.60
2015,05,30,16,03,20.60
2015,05,30,16,04,20.50
2015,05,30,16,05,20.50
2015,05,30,16,06,20.40
2015,05,30,16,07,20.30
2015,05,30,16,08,20.30
2015,05,30,16,09,20.30
2015,05,30,16,10,20.40
2015,05,30,16,11,20.40
2015,05,30,16,12,20.40
2015,05,30,16,13,20.50
2015,05,30,16,14,20.50
2015,05,30,16,15,20.60
2015,05,30,16,16,20.70
2015,05,30,16,17,20.70
2015,05,30,16,18,20.70
2015,05,30,16,19,20.80
2015,05,30,16,20,20.80
2015,05,30,16,21,20.90
2015,05,30,16,22,20.90
2015,05,30,16,23,20.90
2015,05,30,16,24,21.00
2015,05,30,16,25,21.00
2015,05,30,16,26,21.00
2015,05,30,16,27,21.00
2015,05,30,16,28,21.10
2015,05,30,16,29,21.10
2015,05,30,16,30,21.10
2015,05,30,16,31,21.20
2015,05,30,16,32,21.20
2015,05,30,16,33,21.10
2015,05,30,16,34,21.10
2015,05,30,16,35,21.20
2015,05,30,16,36,21.20
2015,05,30,16,37,21.30
2015,05,30,16,38,21.30
2015,05,30,16,39,21.30
2015,05,30,16,40,21.40
2015,05,30,16,41,21.40
2015,05,30,16,42,21.30
2015,05,30,16,43,21.30
2015,05,30,16,44,21.20
2015,05,30,16,45,21.10
2015,05,30,16,46,21.00
2015,05,30,16,47,21.00
2015,05,30,16,48,20.90
2015,05,30,16,49,20.80
2015,05,30,16,50,20.80
2015,05,30,16,51,20.80
2015,05,30,16,52,20.80
2015,05,30,16,53,20.90
2015,05,30,16,54,20.90
2015,05,30,16,55,20.90
2015,05,30,16,56,21.00
2015,05,30,16,57,21.00
2015,05,30,16,58,21.00
2015,05,30,16,59,21.10
2015,05,30,17,00,21.10
2015,05,30,17,01,21.20
2015,05,30,17,02,21.20
2015,05,30,17,03,21.30
2015,05,30,17,04,21.30
2015,05,30,17,05,21.30
2015,05,30,17,06,21.30
2015,05,30,17,07,21.30
2015,05,30,17,08,21.20
2015,05,30,17,09,21.20
2015,05,30,17,10,21.10
2015,05,30,17,11,21.10
2015,05,30,17,12,21.00
2015,05,30,17,13,21.10
2015,05,30,17,14,21.10
2015,05,30,17,15,21.10
2015,05,30,17,16,21.10
2015,05,30,17,17,21.10
2015,05,30,17,18,21.20
2015,05,30,17,19,21.10